Vertical_Velocity
-2 -3 -2 -6 -1 2 0 3 4 1 1 1 1 2 4 5 2 -7 13 -2 -5 1 6 -1 4 2 2 3 1 25 -0 -6 -6 -9 -2 4 -5 2 -8 3 7 4 -0 4 8 -16 -4 -10 18 -6 6 9 4 2
1 -0 -0 -1 -1 -0 1 2 2 3 2 3 3 3 3 3 5 -1 -9 3 -1 0 -5 -1 -1 2 11 14 -2 -0 3 -3 -7 -14 -8 3 -1 -1 2 -4 -0 -10 7 2 -3 6 -1 -14 -7 7 71 -5 15 -2
0 -1 -0 2 1 1 1 3 3 4 2 1 1 3 2 3 0 2 3 2 -5 -10 2 -5 2 15 4 8 13 1 -1 4 2 -1 -5 -5 -19 2 -6 -1 3 -2 6 -17 -1 -2 -7 -8 -2 3 14 10 -6 14
0 -1 -2 -2 1 4 4 2 1 2 3 3 4 3 3 3 3 4 -6 2 -3 -3 -11 4 6 -1 13 9 4 3 2 -2 -0 -4 -4 -5 -3 3 1 1 -6 8 -2 11 -23 -10 -1 -6 18 9 -3 2 1 -1
-0 0 2 2 5 -1 -1 -2 1 1 1 1 1 1 3 3 4 0 -4 1 6 15 -5 8 9 2 11 4 2 2 3 7 -3 1 -7 -7 -2 -1 3 -0 -3 7 2 -8 -11 -4 -11 10 -0 -5 -4 -5 -8 6
0 -2 1 2 1 1 3 4 1 -0 1 2 4 4 2 6 -4 -4 -0 3 5 3 1 2 11 -10 2 4 5 -3 1 -5 -3 -1 -2 -6 -7 -2 -4 3 3 1 2 -7 -3 3 -12 -9 -5 5 11 -8 -0 3
-0 -2 -5 -3 0 -3 -2 -3 -3 -3 -5 -2 1 -5 9 -6 2 -2 -8 27 8 4 8 6 3 4 0 -5 -3 -4 1 -1 -1 -4 -3 7 7 25 19 15 11 2 -0 -4 -1 1 13 1 8 -3 -2 -1 -5 -7
0 -3 -6 -3 -2 -6 -3 1 0 -3 -3 -5 -3 6 5 3 -5 -9 16 5 7 4 18 38 -3 0 -4 -5 1 -3 4 4 0 -5 3 7 5 4 0 6 0 -0 -0 14 22 2 3 8 2 5 6 6 2 -6
0 -2 -0 -4 -4 -2 0 6 -5 -2 3 0 -6 3 17 2 3 -4 10 1 0 26 20 40 -8 -2 4 2 2 6 -3 -5 -1 -2 7 0 -0 -14 -9 -2 7 1 1 1 -2 3 4 2 5 9 5 3 -1 -3
1 -1 3 -3 -4 3 -4 3 5 -0 -5 -4 -5 4 -1 -2 -7 3 5 15 7 13 10 0 1 -1 -2 -2 1 0 -1 -4 -1 6 -6 -8 -9 -2 2 5 5 -5 -4 -4 2 -1 -6 -5 4 4 3 2 -3 1
-1 0 0 1 0 -1 -0 3 -3 3 5 -0 3 -2 -4 -4 -3 23 13 -6 -2 -2 -5 -0 -2 1 1 1 -2 -1 1 -2 -2 4 -8 -8 -10 -1 -2 -2 0 -3 -2 -1 -1 -0 -2 1 1 -1 -3 1 7 2
3 2 0 -1 -2 4 4 -1 -2 -2 7 11 5 2 -1 1 2 -8 -9 -2 -7 -9 -1 0 1 1 0 2 0 -1 -2 -5 -9 1 -7 -13 0 2 2 3 -2 0 -2 1 1 2 -1 3 -2 -1 -2 1 3 1
4 3 3 1 1 1 2 4 3 -1 0 5 -3 -1 -4 4 -5 -2 -4 4 -6 -2 1 1 -0 1 -0 -1 0 -3 0 17 20 -1 2 3 -0 1 -2 2 4 0 2 0 0 -2 -1 1 -2 -4 -5 -1 -2 4
3 7 7 4 3 1 2 3 4 -2 -2 -2 1 2 -5 -5 3 4 1 2 3 -1 -0 -1 -2 -1 1 -2 -1 2 -1 13 15 -1 3 -1 0 -1 -1 4 5 2 2 1 0 -1 0 -0 -1 -2 2 1 0 4
1 1 -0 0 1 2 1 1 2 2 -1 -2 -2 -5 -4 1 -0 -1 -2 -1 2 2 5 2 -1 -2 7 3 -5 -8 -9 -9 1 3 1 5 1 5 8 -3 -0 1 -2 -2 1 1 -1 -3 -0 2 -0 -2 3 4
2 2 -2 -2 -0 -1 -2 -1 -1 -1 -1 -2 0 -5 -1 -2 0 2 0 -1 0 1 1 6 6 3 -1 0 -1 -1 -1 3 5 5 4 3 3 1 -2 2 2 0 2 -1 -2 -1 4 3 4 -0 1 4 2 -0
0 3 7 7 3 -2 -0 -0 -2 -3 -4 -3 -5 -1 -1 -1 1 -2 -1 1 -1 1 5 6 7 3 2 7 3 0 4 -0 1 4 -2 1 2 1 -2 -5 -0 0 2 4 -2 0 0 2 0 -0 1 1 3 0
-1 -1 -1 6 7 2 0 -2 -3 -4 -3 -3 -2 -1 -1 -1 -0 2 3 2 1 6 10 3 3 5 3 5 7 1 -0 2 2 1 1 1 -3 -1 1 1 3 1 -3 -3 1 3 1 -1 1 4 3 1 -0 1
0 1 -0 0 1 1 -0 -2 -5 -6 -3 -3 -2 -1 1 -2 -1 0 1 2 1 0 -1 -2 -1 -0 2 1 1 1 1 0 1 1 -1 -1 1 1 1 -1 -3 -2 -0 1 -0 -1 -2 -2 -2 -2 -1 -0 -1 -1
-2 0 1 -2 0 7 -2 -0 -4 2 -6 -5 -0 1 0 1 1 1 2 3 0 -1 -1 1 1 0 1 -1 -2 -2 -2 -1 -0 0 1 1 2 1 1 1 1 3 4 3 2 2 2 1 1 1 1 1 0 0
0 1 0 2 -2 4 7 -6 1 -9 -2 -5 -5 -4 -0 -0 0 1 1 -0 -2 1 1 2 1 1 2 4 4 3 3 2 2 3 3 1 1 1 2 2 2 3 3 2 2 1 -0 -1 -1 -1 -1 -0 0 -0
2 0 0 -6 -2 7 -2 -5 3 2 -0 -1 1 1 2 3 2 -0 0 0 2 3 3 3 3 3 2 2 1 2 1 1 1 1 1 1 -0 1 1 1 1 1 1 1 1 1 1 1 1 1 0 0 0 -0
1 1 -8 -0 5 -3 -4 0 4 5 1 0 -1 -0 -2 0 1 3 -1 1 2 3 3 3 2 1 0 0 -0 0 1 0 0 -0 -0 0 1 1 0 -0 0 0 2 2 2 1 1 1 -0 -1 -1 -0 0 0
4 -3 -2 1 2 -1 -3 -0 -0 1 0 2 2 3 1 0 0 -1 1 2 1 -1 -2 -2 -1 -1 -1 -1 -2 -2 -3 -3 -4 -4 -4 -4 -3 -3 -2 -2 -1 -1 1 1 1 1 1 0 0 -2 -2 -2 -2 -2
2 -1 -1 1 0 0 -1 -2 -2 -0 -1 -2 -2 -1 -1 1 1 1 1 1 0 -0 -1 -2 -2 -1 -2 -5 -6 -7 -5 -5 -4 -3 -3 -1 0 0 -0 -0 0 -0 -1 -2 -0 1 0 0 0 -0 -1 -1 -1 -1
1 -1 0 0 1 1 1 0 1 0 1 1 0 -0 -0 -1 -2 -3 -2 -2 -3 -3 -2 -2 -4 -5 -5 -4 -5 -6 -5 -4 -3 -3 -1 0 1 1 1 0 -0 1 0 -2 -2 1 -0 -1 0 1 1 -0 1 1
-0 -1 0 0 1 1 0 -1 -1 -1 -1 -1 -2 -2 -2 -2 -3 -5 -4 -2 -2 -2 -3 -4 -5 -6 -7 -9 -8 -5 -3 -1 0 1 -0 -0 0 1 1 1 0 -0 1 1 -1 -1 0 -0 -1 -0 0 -0 -1 -0
0 1 1 1 1 0 -0 -0 0 0 0 -0 -2 -3 -4 -4 -4 -4 -3 -4 -4 -2 -2 -3 -4 -6 -7 -7 -6 -5 -4 -3 -2 -1 0 0 0 0 0 1 1 1 1 1 0 -1 -1 -0 -0 -1 -1 0 1 1
1 1 1 -0 0 -0 -0 0 -0 -0 -1 -2 -3 -2 -2 0 -0 -1 -3 -3 -3 -3 -4 -5 -6 -5 -6 -5 -4 -4 -1 -2 -2 -1 -1 -0 1 -1 0 0 0 1 1 0 -0 -0 -0 -0 -0 -0 -0 -1 -2 -1
2 2 2 -0 1 -1 -1 -1 -1 -1 -2 -2 -1 -1 -2 -2 -2 -2 -2 -3 -3 -3 -3 -4 -4 -5 -7 -5 -2 -2 -1 -1 -2 -3 -3 -2 -1 -0 0 1 0 -0 -1 -1 -1 -1 -0 -0 -0 -0 0 1 1 0
4 2 -0 0 0 0 0 0 -1 -2 -2 -2 -2 -2 -1 -2 -1 -2 -3 -2 -3 -3 -2 -2 -3 -3 -3 -1 0 1 1 0 -1 -1 -1 -1 -1 -1 -1 -1 -1 -1 -0 0 0 -0 -0 -0 -0 -0 -1 -1 -1 -1
3 2 -0 0 0 1 0 -1 -1 -1 -1 -2 -2 -1 -2 -2 -3 -3 -4 -5 -4 -4 -5 -6 -7 -7 -5 -2 -0 -1 -0 -0 1 1 1 1 0 0 0 -0 -0 0 0 1 1 1 0 -0 -0 -0 -0 -0 -0 -1
2 1 1 0 -2 -0 0 -1 -0 -2 -0 -1 -2 -1 -2 -3 -3 -4 -4 -3 -2 -2 -3 -2 -2 -2 0 0 1 1 1 -1 -0 1 0 0 0 0 1 1 1 0 0 -0 -0 -1 -1 -0 -0 -0 -1 -1 -1 -1
Height
5345 5340 5335 5332 5330 5328 5331 5338 5346 5353 5361 5368 5376 5384 5391 5398 5405 5413 5424 5433 5443 5450 5454 5461 5470 5480 5486 5493 5501 5507 5507 5514 5517 5525 5533 5538 5542 5546 5550 5553 5555 5559 5562 5564 5563 5567 5576 5580 5587 5589 5592 5594 5597 5601
5338 5332 5326 5321 5320 5319 5319 5321 5327 5335 5343 5352 5360 5368 5376 5384 5391 5399 5409 5421 5429 5436 5446 5453 5462 5471 5478 5487 5490 5493 5500 5506 5511 5516 5523 5528 5535 5538 5542 5545 5547 5552 5554 5555 5558 5561 5565 5569 5578 5578 5578 5580 5586 5590
5332 5327 5322 5317 5313 5311 5310 5311 5314 5320 5327 5335 5344 5354 5362 5370 5377 5388 5395 5405 5413 5424 5435 5442 5455 5462 5469 5478 5481 5486 5492 5498 5501 5506 5513 5517 5522 5529 5532 5536 5538 5543 5545 5546 5547 5558 5557 5560 5566 5573 5566 5566 5572 5577
5333 5326 5319 5312 5306 5301 5300 5300 5303 5308 5315 5323 5332 5341 5350 5358 5368 5376 5386 5398 5405 5415 5421 5438 5442 5450 5461 5468 5472 5479 5485 5488 5492 5496 5501 5506 5514 5517 5522 5525 5529 5533 5534 5539 5539 5545 5550 5552 5556 5563 5559 5557 5562 5567
5335 5326 5316 5305 5297 5292 5289 5287 5289 5294 5301 5309 5318 5329 5339 5350 5360 5369 5381 5391 5398 5406 5415 5428 5435 5443 5452 5459 5467 5473 5477 5481 5485 5488 5491 5497 5502 5506 5509 5513 5519 5522 5526 5529 5533 5535 5538 5545 5547 5555 5554 5553 5557 5559
5337 5328 5315 5305 5297 5292 5288 5286 5284 5284 5287 5295 5305 5317 5331 5343 5354 5366 5375 5385 5394 5399 5409 5418 5428 5437 5447 5454 5460 5465 5470 5475 5478 5482 5485 5490 5495 5496 5498 5504 5508 5513 5518 5522 5524 5527 5531 5536 5540 5543 5547 5549 5550 5552
5340 5333 5322 5313 5305 5298 5291 5287 5282 5274 5280 5287 5300 5315 5331 5345 5358 5369 5380 5389 5394 5400 5408 5416 5423 5432 5440 5447 5453 5459 5464 5470 5473 5475 5479 5483 5486 5488 5491 5493 5499 5504 5510 5514 5516 5521 5524 5527 5531 5534 5537 5541 5543 5544
5345 5340 5331 5323 5316 5309 5302 5298 5294 5292 5294 5298 5309 5323 5337 5349 5358 5369 5379 5386 5395 5402 5408 5412 5422 5431 5435 5442 5449 5455 5459 5464 5466 5470 5474 5476 5478 5480 5481 5487 5491 5496 5503 5506 5508 5511 5515 5518 5521 5525 5528 5531 5533 5535
5350 5347 5340 5335 5329 5323 5318 5315 5313 5313 5315 5320 5327 5335 5346 5355 5363 5371 5379 5390 5397 5405 5408 5414 5421 5428 5434 5440 5446 5451 5455 5459 5462 5465 5467 5469 5471 5472 5479 5482 5486 5489 5493 5497 5501 5504 5507 5510 5512 5514 5517 5520 5521 5525
5354 5352 5350 5345 5340 5337 5334 5330 5329 5330 5332 5336 5342 5347 5352 5358 5368 5378 5388 5396 5400 5404 5412 5416 5423 5429 5435 5440 5444 5449 5451 5454 5456 5460 5460 5462 5465 5469 5472 5476 5479 5482 5486 5490 5494 5497 5499 5502 5503 5505 5506 5509 5511 5512
5360 5358 5357 5355 5352 5349 5347 5345 5343 5344 5345 5349 5354 5358 5362 5370 5378 5387 5392 5398 5404 5410 5415 5421 5426 5430 5434 5438 5442 5445 5447 5450 5452 5454 5454 5456 5458 5462 5466 5470 5473 5477 5480 5483 5486 5489 5491 5492 5494 5496 5498 5498 5500 5501
5363 5363 5362 5361 5360 5360 5359 5358 5357 5358 5359 5361 5363 5368 5371 5378 5385 5390 5395 5402 5407 5412 5418 5422 5426 5430 5434 5437 5440 5442 5443 5444 5446 5447 5446 5449 5454 5456 5460 5464 5467 5472 5474 5476 5479 5482 5484 5485 5486 5488 5489 5489 5489 5491
5365 5365 5366 5366 5366 5367 5367 5367 5368 5369 5371 5373 5376 5380 5383 5389 5393 5398 5403 5409 5412 5417 5421 5424 5427 5429 5432 5433 5434 5435 5437 5440 5440 5441 5442 5445 5446 5448 5453 5458 5462 5465 5467 5469 5472 5474 5476 5477 5478 5479 5479 5478 5478 5480
5365 5366 5367 5368 5369 5370 5372 5374 5375 5377 5379 5382 5386 5389 5393 5397 5401 5405 5409 5413 5417 5419 5420 5422 5425 5427 5429 5431 5430 5432 5434 5435 5438 5439 5442 5442 5441 5443 5446 5453 5457 5460 5462 5464 5466 5467 5468 5468 5469 5468 5468 5467 5467 5468
5364 5365 5366 5368 5369 5371 5374 5377 5379 5382 5384 5387 5390 5393 5397 5401 5403 5406 5410 5413 5416 5418 5421 5423 5425 5427 5428 5429 5430 5433 5434 5434 5436 5438 5438 5439 5439 5440 5442 5448 5451 5454 5456 5457 5457 5457 5459 5459 5458 5458 5458 5457 5456 5456
5365 5366 5367 5368 5371 5372 5373 5377 5380 5384 5387 5391 5394 5397 5399 5402 5405 5407 5410 5414 5418 5420 5422 5424 5425 5427 5427 5428 5430 5430 5431 5433 5435 5435 5435 5435 5436 5437 5440 5444 5446 5448 5449 5449 5449 5449 5448 5448 5448 5448 5448 5447 5447 5447
5369 5368 5367 5369 5371 5372 5374 5377 5380 5384 5388 5393 5397 5401 5403 5405 5408 5411 5414 5418 5421 5423 5424 5425 5427 5428 5429 5429 5429 5428 5430 5432 5431 5431 5431 5431 5433 5435 5438 5440 5440 5441 5441 5440 5440 5438 5438 5437 5438 5438 5438 5438 5437 5435
5375 5374 5372 5371 5372 5374 5375 5377 5380 5386 5390 5396 5400 5404 5407 5409 5413 5416 5419 5422 5424 5425 5427 5428 5429 5429 5429 5429 5430 5430 5430 5431 5430 5430 5430 5430 5431 5432 5432 5432 5433 5433 5433 5432 5431 5430 5429 5429 5428 5427 5427 5427 5425 5423
5381 5381 5380 5378 5376 5376 5377 5379 5383 5388 5394 5400 5405 5408 5410 5413 5417 5421 5424 5425 5427 5428 5429 5430 5430 5430 5431 5430 5430 5430 5430 5430 5430 5429 5428 5428 5428 5428 5427 5427 5427 5427 5427 5425 5424 5423 5422 5421 5419 5418 5417 5415 5413 5411
5387 5387 5387 5388 5388 5387 5387 5387 5389 5394 5400 5406 5409 5413 5417 5420 5423 5425 5427 5428 5429 5430 5431 5432 5432 5432 5433 5433 5433 5432 5432 5431 5430 5429 5428 5427 5425 5424 5423 5422 5421 5419 5417 5415 5413 5411 5409 5408 5406 5404 5402 5401 5398 5396
5394 5394 5394 5396 5398 5400 5402 5402 5405 5406 5410 5414 5417 5421 5424 5426 5428 5429 5430 5432 5433 5433 5434 5434 5434 5433 5432 5432 5431 5430 5428 5427 5425 5423 5421 5419 5417 5415 5413 5410 5408 5406 5404 5401 5399 5397 5395 5392 5390 5388 5386 5384 5382 5380
5400 5401 5401 5401 5406 5409 5409 5411 5414 5416 5418 5420 5423 5425 5427 5429 5430 5431 5433 5434 5435 5435 5434 5434 5433 5432 5430 5429 5427 5424 5422 5419 5417 5414 5412 5409 5406 5403 5400 5397 5394 5391 5388 5385 5383 5380 5377 5375 5372 5371 5369 5367 5365 5362
5407 5407 5408 5411 5415 5415 5417 5418 5421 5423 5424 5426 5427 5430 5431 5433 5434 5435 5434 5434 5434 5434 5433 5432 5430 5428 5426 5423 5421 5417 5414 5410 5406 5402 5398 5394 5390 5386 5382 5378 5375 5372 5369 5366 5364 5361 5359 5357 5355 5353 5351 5350 5349 5347
5414 5414 5416 5420 5421 5421 5423 5425 5427 5429 5430 5432 5433 5435 5435 5436 5436 5435 5435 5435 5434 5432 5430 5428 5426 5422 5419 5416 5412 5408 5404 5398 5393 5387 5382 5377 5372 5368 5364 5361 5358 5355 5353 5350 5348 5346 5344 5342 5340 5338 5337 5336 5334 5333
5419 5420 5422 5424 5426 5428 5429 5430 5432 5434 5434 5435 5436 5436 5436 5436 5436 5435 5433 5432 5430 5427 5425 5422 5418 5415 5411 5406 5400 5394 5388 5382 5375 5370 5365 5361 5357 5353 5349 5347 5345 5343 5341 5339 5338 5335 5333 5332 5330 5327 5325 5324 5323 5322
5421 5423 5425 5426 5428 5430 5431 5432 5433 5434 5435 5435 5435 5435 5434 5434 5433 5431 5429 5427 5424 5421 5418 5415 5411 5406 5400 5394 5387 5380 5372 5364 5358 5353 5349 5347 5344 5341 5339 5338 5336 5335 5333 5331 5329 5328 5326 5324 5322 5321 5319 5318 5317 5315
5423 5424 5426 5428 5429 5431 5432 5433 5434 5434 5434 5434 5433 5433 5432 5430 5429 5427 5424 5421 5418 5414 5411 5406 5401 5396 5389 5382 5374 5366 5358 5352 5346 5341 5337 5334 5332 5331 5330 5329 5328 5327 5326 5324 5322 5321 5320 5318 5317 5316 5315 5314 5312 5310
5423 5424 5427 5429 5430 5431 5432 5432 5433 5433 5433 5433 5432 5430 5429 5427 5424 5421 5418 5414 5411 5408 5403 5399 5393 5386 5379 5370 5361 5354 5348 5342 5336 5331 5327 5325 5323 5322 5322 5321 5320 5319 5318 5318 5317 5316 5315 5315 5314 5312 5311 5309 5307 5305
5421 5424 5426 5427 5429 5430 5430 5431 5431 5430 5430 5429 5428 5426 5424 5421 5418 5415 5411 5408 5404 5400 5396 5390 5384 5377 5369 5360 5352 5346 5342 5337 5332 5327 5323 5321 5319 5317 5316 5315 5315 5314 5314 5314 5313 5313 5312 5311 5310 5308 5306 5304 5301 5298
5420 5423 5424 5425 5427 5427 5428 5428 5427 5427 5426 5425 5423 5420 5418 5415 5412 5409 5405 5401 5397 5392 5387 5382 5375 5368 5360 5352 5346 5341 5337 5333 5329 5326 5322 5319 5317 5315 5314 5314 5313 5313 5312 5311 5311 5310 5308 5307 5305 5303 5301 5298 5295 5292
5418 5420 5421 5423 5423 5424 5424 5423 5423 5422 5421 5419 5417 5414 5412 5409 5405 5402 5398 5394 5389 5385 5379 5374 5367 5361 5354 5347 5341 5336 5333 5329 5325 5322 5320 5318 5317 5315 5314 5313 5312 5311 5310 5308 5307 5305 5303 5302 5299 5297 5294 5291 5287 5283
5416 5417 5418 5419 5419 5420 5419 5418 5417 5416 5414 5412 5410 5407 5404 5401 5398 5395 5391 5386 5381 5375 5370 5364 5358 5352 5346 5340 5335 5331 5327 5325 5322 5320 5318 5317 5315 5314 5312 5310 5309 5307 5306 5304 5302 5300 5298 5296 5293 5290 5287 5283 5279 5274
5411 5413 5414 5414 5414 5414 5414 5413 5412 5410 5408 5406 5403 5400 5397 5394 5391 5387 5382 5377 5373 5367 5362 5356 5350 5344 5337 5332 5329 5325 5322 5320 5317 5316 5314 5313 5311 5310 5308 5306 5305 5303 5301 5299 5297 5295 5292 5289 5286 5283 5279 5274 5270 5265